Cody, WY

7:07 PM MDT on June 27, 2017 (GMT -0600)
Yellowstone Regional

Weather History for KCOD - February, 2011

Change the Weather History Date:

Tuesday, February 22, 2011

  Actual Average Record
Temperature  
Mean Temperature 24 °F -  
Max Temperature 30 °F 46 °F 90 °F (1949)
Min Temperature 17 °F 21 °F -11 °F (1957)
Degree Days  
Heating Degree Days 42    
Moisture  
Dew Point 6 °F    
Average Humidity 43    
Maximum Humidity 58    
Minimum Humidity 32    
Precipitation  
Precipitation 0.00 in - - ()
Sea Level Pressure  
Sea Level Pressure 29.65 in    
Wind  
Wind Speed 15 mph (SSW)    
Max Wind Speed 25 mph    
Max Gust Speed 38 mph    
Visibility 10 miles    
Events      
Averages and records for this station are not official NWS values.
T = Trace of Precipitation, MM = Missing Value Source: NWS Daily Summary

Daily Weather History Graph

Daily Weather History Graph

Search for Another Location

Airport or City:

Trip Planner

Search our weather history database for the weather conditions in past years. The results will help you decide how hot, cold, wet, or windy it might be!

Date:

Astronomy

Feb. 22, 2011 Rise Set
Actual Time 7:05 AM MST 5:54 PM MST
Civil Twilight 6:36 AM MST 6:23 PM MST
Nautical Twilight 6:02 AM MST 6:57 PM MST
Astronomical Twilight 5:28 AM MST 7:31 PM MST
Moon No Moon Rise 8:57 AM MST (2/22)
Length of Visible Light 11h 47m
Length of Day
10h 48m
Waning Gibbous, 74% of the Moon is Illuminated
Feb 22
Waning Gibbous
Feb 24
Last Quarter
Mar 4
New
Mar 12
First Quarter
Mar 19
Full

Hourly Weather History & Observations

Time (MST) Temp. Windchill Dew Point Humidity Pressure Visibility Wind Dir Wind Speed Gust Speed Precip Events Conditions
12:15 AM 26.6 °F 12.7 °F 6.8 °F 43% 29.72 in 10.0 mi SSW 20.7 mph 26.5 mph N/A   Clear
12:35 AM 26.6 °F 15.7 °F 5.0 °F 40% 29.73 in 10.0 mi SW 12.7 mph 25.3 mph N/A   Clear
12:55 AM 26.6 °F 13.8 °F 5.0 °F 40% 29.72 in 10.0 mi SSW 17.3 mph 24.2 mph N/A   Clear
1:35 AM 28.4 °F 17.5 °F 5.0 °F 37% 29.72 in 10.0 mi SW 13.8 mph 24.2 mph N/A   Clear
1:55 AM 28.4 °F 16.2 °F 5.0 °F 37% 29.71 in 10.0 mi SW 17.3 mph 21.9 mph N/A   Clear
2:15 AM 28.4 °F 19.7 °F 5.0 °F 37% 29.71 in 10.0 mi SW 9.2 mph 19.6 mph N/A   Clear
2:35 AM 28.4 °F 19.7 °F 5.0 °F 37% 29.70 in 10.0 mi WSW 9.2 mph 25.3 mph N/A   Clear
2:55 AM 28.4 °F 13.8 °F 5.0 °F 37% 29.68 in 10.0 mi WSW 25.3 mph 35.7 mph N/A   Clear
3:15 AM 28.4 °F 15.8 °F 5.0 °F 37% 29.68 in 10.0 mi SW 18.4 mph 38.0 mph N/A   Clear
3:35 AM 28.4 °F 14.7 °F 5.0 °F 37% 29.67 in 10.0 mi SW 21.9 mph 27.6 mph N/A   Clear
3:55 AM 28.4 °F 14.1 °F 5.0 °F 37% 29.67 in 10.0 mi SW 24.2 mph 32.2 mph N/A   Clear
4:15 AM 28.4 °F 13.8 °F 5.0 °F 37% 29.68 in 10.0 mi SSW 25.3 mph 33.4 mph N/A   Clear
4:35 AM 28.4 °F 15.4 °F 5.0 °F 37% 29.69 in 10.0 mi SW 19.6 mph 26.5 mph N/A   Clear
4:55 AM 28.4 °F 15.8 °F 5.0 °F 37% 29.69 in 10.0 mi SSW 18.4 mph 24.2 mph N/A   Clear
5:15 AM 26.6 °F 16.8 °F 5.0 °F 40% 29.69 in 10.0 mi SW 10.4 mph - N/A   Clear
5:35 AM 24.8 °F 14.6 °F 3.2 °F 40% 29.69 in 10.0 mi SW 10.4 mph - N/A   Clear
5:55 AM 21.2 °F 8.9 °F 1.4 °F 42% 29.69 in 10.0 mi South 12.7 mph 18.4 mph N/A   Clear
6:15 AM 19.4 °F 7.9 °F -0.4 °F 42% 29.69 in 10.0 mi South 10.4 mph - N/A   Clear
6:35 AM 19.4 °F 6.0 °F -0.4 °F 42% 29.69 in 10.0 mi SSE 13.8 mph - N/A   Clear
6:55 AM 17.6 °F 4.3 °F -0.4 °F 45% 29.69 in 10.0 mi SSE 12.7 mph - N/A   Clear
7:15 AM 17.6 °F 5.0 °F -0.4 °F 45% 29.68 in 10.0 mi SSE 11.5 mph - N/A   Clear
7:35 AM 17.6 °F 5.0 °F -0.4 °F 45% 29.68 in 10.0 mi SE 11.5 mph - N/A   Clear
7:55 AM 17.6 °F 5.7 °F 1.4 °F 49% 29.69 in 10.0 mi SE 10.4 mph - N/A   Clear
8:15 AM 21.2 °F 9.5 °F 3.2 °F 46% 29.68 in 10.0 mi SSE 11.5 mph - N/A   Clear
8:35 AM 21.2 °F 8.3 °F 3.2 °F 46% 29.67 in 10.0 mi SSE 13.8 mph - N/A   Clear
9:15 AM 26.6 °F 15.2 °F 8.6 °F 47% 29.66 in 10.0 mi ESE 13.8 mph - N/A   Clear
9:35 AM 28.4 °F 17.5 °F 8.6 °F 43% 29.65 in 10.0 mi ESE 13.8 mph - N/A   Scattered Clouds
9:55 AM 28.4 °F 18.0 °F 8.6 °F 43% 29.65 in 10.0 mi ESE 12.7 mph - N/A   Mostly Cloudy
10:35 AM 30.2 °F 19.8 °F 8.6 °F 40% 29.64 in 10.0 mi ESE 13.8 mph - N/A   Overcast
10:55 AM 30.2 °F 20.8 °F 8.6 °F 40% 29.64 in 10.0 mi SE 11.5 mph - N/A   Overcast
11:15 AM 30.2 °F 19.3 °F 8.6 °F 40% 29.63 in 10.0 mi East 15.0 mph - N/A   Overcast
11:35 AM 28.4 °F 16.6 °F 8.6 °F 43% 29.62 in 10.0 mi East 16.1 mph - N/A   Overcast
11:55 AM 28.4 °F 16.2 °F 8.6 °F 43% 29.61 in 10.0 mi East 17.3 mph - N/A   Overcast
12:15 PM 21.2 °F 9.5 °F 5.0 °F 50% 29.61 in 10.0 mi NNE 11.5 mph - N/A   Overcast
12:35 PM 21.2 °F 12.6 °F 6.8 °F 54% 29.62 in 10.0 mi NNE 6.9 mph - N/A   Overcast
12:55 PM 21.2 °F 12.6 °F 8.6 °F 58% 29.61 in 10.0 mi NNE 6.9 mph - N/A   Overcast
1:15 PM 21.2 °F 12.6 °F 6.8 °F 54% 29.60 in 10.0 mi NE 6.9 mph - N/A   Overcast
1:35 PM 24.8 °F 16.1 °F 8.6 °F 50% 29.58 in 10.0 mi ENE 8.1 mph - N/A   Scattered Clouds
1:55 PM 24.8 °F 16.9 °F 8.6 °F 50% 29.58 in 10.0 mi North 6.9 mph - N/A   Mostly Cloudy
2:15 PM 24.8 °F 14.6 °F 8.6 °F 50% 29.58 in 10.0 mi NNE 10.4 mph - N/A   Mostly Cloudy
2:35 PM 24.8 °F 14.6 °F 10.4 °F 54% 29.58 in 10.0 mi NNE 10.4 mph - N/A   Overcast
2:55 PM 24.8 °F 15.3 °F 10.4 °F 54% 29.57 in 10.0 mi NE 9.2 mph - N/A   Overcast
3:15 PM 26.6 °F 19.1 °F 12.2 °F 55% 29.57 in 10.0 mi NNE 6.9 mph - N/A   Overcast
3:35 PM 28.4 °F 18.5 °F 10.4 °F 47% 29.58 in 10.0 mi NW 11.5 mph - N/A   Overcast
3:55 PM 28.4 °F 15.4 °F 12.2 °F 51% 29.60 in 10.0 mi WSW 19.6 mph 24.2 mph N/A   Overcast
4:15 PM 30.2 °F 19.3 °F 10.4 °F 44% 29.60 in 10.0 mi West 15.0 mph 25.3 mph N/A   Overcast
4:35 PM 30.2 °F 20.2 °F 8.6 °F 40% 29.60 in 10.0 mi West 12.7 mph 25.3 mph N/A   Mostly Cloudy
4:55 PM 30.2 °F 21.9 °F 6.8 °F 37% 29.61 in 10.0 mi WSW 9.2 mph 24.2 mph N/A   Partly Cloudy
5:35 PM 30.2 °F 20.8 °F 3.2 °F 32% 29.62 in 10.0 mi West 11.5 mph 20.7 mph N/A   Clear
5:55 PM 28.4 °F 22.2 °F 3.2 °F 34% 29.64 in 10.0 mi West 5.8 mph 16.1 mph N/A   Partly Cloudy
6:15 PM 28.4 °F 19.7 °F 5.0 °F 37% 29.64 in 10.0 mi West 9.2 mph 16.1 mph N/A   Clear
6:35 PM 28.4 °F 19.7 °F 6.8 °F 40% 29.65 in 10.0 mi WSW 9.2 mph 18.4 mph N/A   Clear
6:55 PM 28.4 °F 16.2 °F 5.0 °F 37% 29.64 in 10.0 mi WSW 17.3 mph 27.6 mph N/A   Clear
7:15 PM 28.4 °F 15.8 °F 3.2 °F 34% 29.65 in 10.0 mi WSW 18.4 mph 27.6 mph N/A   Clear
7:35 PM 28.4 °F 17.5 °F 3.2 °F 34% 29.65 in 10.0 mi West 13.8 mph 21.9 mph N/A   Clear
7:55 PM 28.4 °F 17.5 °F 3.2 °F 34% 29.65 in 10.0 mi WSW 13.8 mph 19.6 mph N/A   Clear
8:15 PM 28.4 °F 18.5 °F 3.2 °F 34% 29.66 in 10.0 mi SW 11.5 mph - N/A   Clear
8:35 PM 28.4 °F 18.5 °F 3.2 °F 34% 29.66 in 10.0 mi WSW 11.5 mph 20.7 mph N/A   Clear
8:55 PM 28.4 °F 17.0 °F 3.2 °F 34% 29.67 in 10.0 mi West 15.0 mph 23.0 mph N/A   Clear
9:15 PM 28.4 °F 23.3 °F 3.2 °F 34% 29.69 in 10.0 mi SSW 4.6 mph - N/A   Clear
9:35 PM 21.2 °F 9.5 °F 6.8 °F 54% 29.69 in 10.0 mi NE 11.5 mph - N/A   Clear
9:55 PM 19.4 °F 9.5 °F 8.6 °F 63% 29.69 in 10.0 mi NE 8.1 mph - N/A   Clear
10:15 PM 19.4 °F 14.3 °F 8.6 °F 63% 29.70 in 10.0 mi WSW 3.5 mph - N/A   Clear
10:35 PM 19.4 °F - 8.6 °F 63% 29.70 in 10.0 mi Calm Calm - N/A   Partly Cloudy
10:55 PM 17.6 °F 7.3 °F 8.6 °F 68% 29.71 in 10.0 mi South 8.1 mph - N/A   Partly Cloudy
11:15 PM 15.8 °F - 6.8 °F 68% 29.72 in 10.0 mi Calm Calm - N/A   Scattered Clouds
11:35 PM 14.0 °F 8.2 °F 3.2 °F 62% 29.72 in 9.0 mi SE 3.5 mph - N/A   Scattered Clouds
11:55 PM 15.8 °F - 6.8 °F 68% 29.72 in 10.0 mi Calm Calm - N/A   Partly Cloudy